Weather reports worldwide

Advertisment
Cambridge (NIAB), United Kingdom (99123): temperature & dewpoint: 19.01.2020 16:00:00 - 25.01.2020 16:00:00 (GMT)Cambridge (NIAB), United Kingdom (99123): precipitation: 19.01.2020 16:00:00 - 25.01.2020 16:00:00 (GMT)
Date & Time tt [°C] td [°C] rr [mm]
25.01.2020 16:00:00 6,2 4,7 0,0
25.01.2020 15:00:00 6,3 4,6 0,0
25.01.2020 14:00:00 6,1 4,5 0,0
25.01.2020 13:00:00 5,9 4,0 0,0
25.01.2020 12:00:00 5,9 3,7 0,0
25.01.2020 11:00:00 5,9 3,4 0,0
25.01.2020 10:00:00 5,6 3,7 0,0
25.01.2020 09:00:00 5,3 3,5 0,0
25.01.2020 08:00:00 5,4 3,7 0,0
25.01.2020 07:00:00 5,4 4,2 0,0
25.01.2020 06:00:00 5,6 4,4 0,0
25.01.2020 05:00:00 5,9 4,1 0,0
25.01.2020 04:00:00 5,7 4,1 0,0
25.01.2020 03:00:00 5,7 4,0 0,0
25.01.2020 02:00:00 5,9 4,4 0,0
25.01.2020 01:00:00 5,8 5,0 0,0
25.01.2020 00:00:00 5,9 5,2 0,0
24.01.2020 23:00:00 6,0 5,2 0,0
24.01.2020 22:00:00 6,0 5,3 0,0
24.01.2020 21:00:00 6,1 5,5 0,0
24.01.2020 20:00:00 6,2 5,5 0,0
24.01.2020 19:00:00 6,1 5,5 0,0
24.01.2020 18:00:00 6,3 5,7 0,0
24.01.2020 17:00:00 6,4 5,7 0,0
24.01.2020 16:00:00 6,6 5,8 0,0
24.01.2020 15:00:00 6,8 5,8 0,0
24.01.2020 14:00:00 6,9 5,9 0,0
24.01.2020 13:00:00 6,8 5,6 0,0
24.01.2020 12:00:00 6,8 5,9 0,0
24.01.2020 11:00:00 6,3 5,6 0,0
24.01.2020 10:00:00 5,9 5,3 0,0
24.01.2020 09:00:00 5,7 5,2 0,0
24.01.2020 08:00:00 5,4 5,1 0,0
24.01.2020 07:00:00 5,3 5,0 0,0
24.01.2020 06:00:00 5,3 5,0 0,0
24.01.2020 05:00:00 5,2 5,0 0,0
24.01.2020 04:00:00 5,3 5,1 0,0
24.01.2020 03:00:00 5,4 5,2 0,2
24.01.2020 02:00:00 5,5 5,2 0,0
24.01.2020 01:00:00 5,6 5,2 0,0
24.01.2020 00:00:00 5,7 5,2 0,0
23.01.2020 23:00:00 5,9 5,1 0,0
23.01.2020 22:00:00 6,1 5,1 0,0
23.01.2020 21:00:00 6,3 5,1 0,0
23.01.2020 20:00:00 6,2 5,3 0,0
23.01.2020 19:00:00 6,3 5,3 0,0
23.01.2020 18:00:00 6,5 5,3 0,0
23.01.2020 17:00:00 6,8 5,2 0,0
23.01.2020 16:00:00 7,0 5,5 0,0
23.01.2020 15:00:00 7,3 5,3 0,0
23.01.2020 14:00:00 7,4 5,0 0,0
23.01.2020 13:00:00 7,5 6,7 0,0
23.01.2020 12:00:00 7,0 7,0 0,0
23.01.2020 11:00:00 6,5 6,4 0,0
23.01.2020 10:00:00 6,1 6,1 0,0
23.01.2020 09:00:00 5,8 5,8 0,0
23.01.2020 08:00:00 5,8 5,8 0,0
23.01.2020 07:00:00 5,5 5,4 0,0
23.01.2020 06:00:00 5,5 5,4 0,0
23.01.2020 05:00:00 5,7 5,6 0,0
23.01.2020 04:00:00 5,6 5,5 0,0
23.01.2020 03:00:00 5,3 5,3 0,0
23.01.2020 02:00:00 5,6 5,6 0,0
23.01.2020 01:00:00 5,9 5,9 0,0
23.01.2020 00:00:00 5,9 5,9 0,0
22.01.2020 23:00:00 5,8 5,7 0,0
22.01.2020 22:00:00 5,9 5,8 0,0
22.01.2020 21:00:00 5,6 5,4 0,0
22.01.2020 20:00:00 6,4 6,2 0,0
22.01.2020 19:00:00 5,8 5,6 0,0
22.01.2020 18:00:00 6,3 6,1 0,0
22.01.2020 17:00:00 6,6 6,4 0,0
22.01.2020 16:00:00 6,7 6,5 0,0
22.01.2020 15:00:00 6,6 6,5 0,0
22.01.2020 14:00:00 6,3 6,3 0,0
22.01.2020 13:00:00 6,1 6,0 0,0
22.01.2020 12:00:00 5,9 5,9 0,0
22.01.2020 11:00:00 5,4 5,4 0,0
22.01.2020 10:00:00 5,0 5,0 0,0
22.01.2020 09:00:00 4,2 4,2 0,0
22.01.2020 08:00:00 4,1 4,0 0,0
22.01.2020 07:00:00 3,9 3,9 0,0
22.01.2020 06:00:00 4,2 4,2 0,2
22.01.2020 05:00:00 3,7 3,6 0,0
22.01.2020 04:00:00 3,2 3,2 0,0
22.01.2020 03:00:00 3,8 3,8 0,0
22.01.2020 02:00:00 2,6 2,5 0,0
22.01.2020 01:00:00 1,9 1,9 0,0
22.01.2020 00:00:00 1,3 1,2 0,0
21.01.2020 23:00:00 1,8 1,7 0,0
21.01.2020 22:00:00 -0,2 -0,5 0,0
21.01.2020 21:00:00 0,4 0,1 0,0
21.01.2020 20:00:00 0,8 0,3 0,0
21.01.2020 19:00:00 1,0 0,3 0,0
21.01.2020 18:00:00 2,4 1,3 0,0
21.01.2020 17:00:00 4,4 3,0 0,0
21.01.2020 16:00:00 5,5 2,9 0,0
21.01.2020 15:00:00 6,0 2,8 0,0
21.01.2020 14:00:00 5,5 2,7 0,0
21.01.2020 13:00:00 4,1 2,7 0,0
21.01.2020 12:00:00 3,5 2,2 0,0
21.01.2020 11:00:00 2,6 1,9 0,0
21.01.2020 10:00:00 0,7 0,6 0,2
21.01.2020 09:00:00 -1,0 -1,1 0,0
21.01.2020 08:00:00 -1,4 -1,6 0,0
21.01.2020 07:00:00 -1,5 -1,6 0,0
21.01.2020 06:00:00 -1,4 -1,6 0,0
21.01.2020 05:00:00 -1,2 -1,3 0,0
21.01.2020 04:00:00 -1,3 -1,5 0,0
21.01.2020 03:00:00 -0,3 -0,5 0,0
21.01.2020 02:00:00 -1,2 -1,5 0,0
21.01.2020 01:00:00 -0,1 -0,4 0,0
21.01.2020 00:00:00 -0,2 -0,8 0,0
20.01.2020 23:00:00 0,5 0,0 0,0
20.01.2020 22:00:00 0,1 -0,5 0,0
20.01.2020 21:00:00 1,0 0,6 0,0
20.01.2020 20:00:00 0,8 0,4 0,0
20.01.2020 19:00:00 0,5 -0,4 0,0
20.01.2020 18:00:00 2,2 1,1 0,0
20.01.2020 17:00:00 2,7 1,0 0,0
20.01.2020 16:00:00 5,9 2,6 0,0
20.01.2020 15:00:00 6,9 2,9 0,0
20.01.2020 14:00:00 7,0 3,2 0,0
20.01.2020 13:00:00 6,5 2,4 0,0
20.01.2020 12:00:00 5,6 2,0 0,0
20.01.2020 11:00:00 3,5 0,5 0,0
20.01.2020 10:00:00 1,8 0,0 0,0
20.01.2020 09:00:00 1,9 0,1 0,0
20.01.2020 08:00:00 1,2 0,0 0,0
20.01.2020 07:00:00 0,7 -0,8 0,0
20.01.2020 06:00:00 1,4 0,3 0,0
20.01.2020 05:00:00 0,9 0,1 0,0
20.01.2020 04:00:00 0,9 0,3 0,0
20.01.2020 03:00:00 1,0 0,4 0,0
20.01.2020 02:00:00 0,8 0,0 0,0
20.01.2020 01:00:00 0,5 -0,1 0,0
20.01.2020 00:00:00 0,6 0,0 0,0
19.01.2020 23:00:00 0,4 -0,1 0,0
19.01.2020 22:00:00 -0,1 -0,6 0,0
19.01.2020 21:00:00 -0,4 -1,0 0,0
19.01.2020 20:00:00 -0,2 -1,0 0,0
19.01.2020 19:00:00 0,0 -0,8 0,0
19.01.2020 18:00:00 0,3 -0,9 0,0
19.01.2020 17:00:00 2,5 -0,1 0,0
19.01.2020 16:00:00 5,0 0,5 0,0

tt = temperature
td = dewpoint
rr = precipitation

Next stations